| time (UTC) | temp C | wind direction | speed KPH | gust KPH | rain 1hr cm | rain 24hr cm | rain mn cm | humidity % | barometer mb |
| 20260504150903 | 18 | 192 | 11.3 | 25.7 | 0.00 | 0.03 | 0.03 | 82 | 1012.5 |
| 20260504140903 | 18 | 209 | 9.7 | 17.7 | 0.00 | 0.03 | 0.03 | 83 | 1012.7 |
| 20260504081803 | 18 | 135 | 6.4 | 12.9 | 0.00 | 0.18 | 0.00 | 83 | 1013.6 |
| 20260504080903 | 19 | 128 | 8.0 | 14.5 | 0.00 | 0.28 | 0.00 | 82 | 1013.5 |
| 20260504050003 | 16 | 150 | 4.8 | 9.7 | 0.00 | 0.30 | 0.00 | 89 | 1013.3 |
| 20260504045407 | 16 | 157 | 4.8 | 8.0 | 0.00 | 0.30 | 0.00 | 89 | 1013.3 |
| 20260504044504 | 16 | 161 | 4.8 | 9.7 | 0.00 | 0.30 | 0.00 | 88 | 1013.2 |
| 20260504043603 | 17 | 165 | 4.8 | 9.7 | 0.00 | 0.30 | 0.00 | 87 | 1013.2 |
| 20260504042703 | 16 | 174 | 4.8 | 8.0 | 0.00 | 0.30 | 0.00 | 87 | 1013.0 |
| 20260504041803 | 16 | 196 | 3.2 | 6.4 | 0.00 | 0.30 | 0.00 | 88 | 1013.2 |
| 20260504040903 | 16 | 169 | 1.6 | 4.8 | 0.00 | 0.30 | 0.00 | 88 | 1013.2 |
| 20260504040003 | 16 | 73 | 3.2 | 9.7 | 0.00 | 0.30 | 0.00 | 89 | 1013.3 |
| 20260504035403 | 16 | 103 | 4.8 | 9.7 | 0.00 | 0.30 | 0.00 | 89 | 1013.5 |
| 20260504034503 | 16 | 132 | 4.8 | 6.4 | 0.00 | 0.30 | 0.00 | 89 | 1013.5 |
| 20260504033603 | 16 | 166 | 3.2 | 6.4 | 0.00 | 0.30 | 0.00 | 89 | 1013.8 |
| 20260504032703 | 16 | 181 | 3.2 | 6.4 | 0.00 | 0.30 | 0.00 | 89 | 1013.8 |
| 20260504031803 | 16 | 180 | 3.2 | 6.4 | 0.00 | 0.30 | 0.00 | 90 | 1014.0 |
| 20260504030903 | 16 | 171 | 3.2 | 6.4 | 0.00 | 0.30 | 0.00 | 90 | 1014.0 |
| 20260504030003 | 16 | 153 | 3.2 | 6.4 | 0.00 | 0.30 | 0.00 | 90 | 1014.0 |
| 20260504025403 | 16 | 159 | 3.2 | 8.0 | 0.00 | 0.30 | 0.00 | 89 | 1013.9 |
| 20260504024503 | 16 | 150 | 3.2 | 8.0 | 0.00 | 0.30 | 0.00 | 89 | 1013.9 |
| 20260504023603 | 16 | 152 | 3.2 | 6.4 | 0.00 | 0.30 | 0.00 | 88 | 1013.8 |
| 20260504022703 | 16 | 164 | 3.2 | 8.0 | 0.00 | 0.30 | 0.00 | 88 | 1013.8 |
| 20260504021803 | 16 | 44 | 3.2 | 8.0 | 0.00 | 0.30 | 0.00 | 88 | 1014.0 |
| 20260504020903 | 16 | 184 | 3.2 | 11.3 | 0.00 | 0.30 | 0.00 | 88 | 1014.0 |
| 20260504020004 | 16 | 188 | 3.2 | 8.0 | 0.00 | 0.30 | 0.00 | 88 | 1014.0 |
| 20260504015403 | 16 | 172 | 3.2 | 8.0 | 0.00 | 0.30 | 0.00 | 88 | 1014.0 |
| 20260504014503 | 16 | 18 | 1.6 | 8.0 | 0.00 | 0.30 | 0.00 | 88 | 1014.2 |
| 20260504013603 | 16 | 13 | 1.6 | 6.4 | 0.00 | 0.30 | 0.00 | 88 | 1014.4 |
| 20260504012703 | 16 | 46 | 1.6 | 6.4 | 0.00 | 0.30 | 0.00 | 88 | 1014.4 |
| 20260504011804 | 16 | 185 | 1.6 | 4.8 | 0.00 | 0.28 | 0.00 | 87 | 1014.4 |
| 20260504010903 | 16 | 174 | 1.6 | 6.4 | 0.00 | 0.28 | 0.00 | 87 | 1014.4 |
| 20260504010003 | 16 | 162 | 6.4 | 11.3 | 0.00 | 0.28 | 0.00 | 86 | 1014.6 |
| 20260504005403 | 16 | 159 | 4.8 | 11.3 | 0.00 | 0.28 | 0.00 | 85 | 1014.8 |
| 20260504004503 | 16 | 164 | 4.8 | 8.0 | 0.00 | 0.28 | 0.00 | 84 | 1014.8 |
| 20260504003603 | 17 | 190 | 3.2 | 8.0 | 0.00 | 0.28 | 0.00 | 83 | 1014.8 |
| 20260504002703 | 17 | 193 | 4.8 | 9.7 | 0.00 | 0.28 | 0.00 | 83 | 1014.7 |
| 20260504001803 | 17 | 180 | 6.4 | 11.3 | 0.00 | 0.28 | 0.00 | 82 | 1014.7 |
| 20260504000903 | 17 | 179 | 3.2 | 9.7 | 0.00 | 0.28 | 0.00 | 82 | 1014.7 |
| 20260504000004 | 16 | 209 | 4.8 | 8.0 | 0.00 | 0.28 | 0.00 | 83 | 1014.7 |
| 20260503235403 | 16 | 164 | 4.8 | 8.0 | 0.00 | 0.28 | 0.00 | 84 | 1014.6 |
| 20260503234503 | 16 | 164 | 4.8 | 6.4 | 0.00 | 0.28 | 0.00 | 85 | 1014.7 |
| 20260503233603 | 16 | 148 | 4.8 | 6.4 | 0.00 | 0.28 | 0.00 | 86 | 1014.7 |
| 20260503232703 | 16 | 142 | 4.8 | 6.4 | 0.00 | 0.28 | 0.00 | 88 | 1014.8 |
| 20260503231803 | 16 | 126 | 3.2 | 6.4 | 0.00 | 0.28 | 0.00 | 88 | 1014.7 |
| 20260503230903 | 16 | 66 | 3.2 | 4.8 | 0.00 | 0.28 | 0.00 | 88 | 1014.6 |
| 20260503230003 | 16 | 112 | 4.8 | 6.4 | 0.00 | 0.28 | 0.00 | 87 | 1014.8 |
| 20260503225403 | 16 | 132 | 4.8 | 9.7 | 0.00 | 0.28 | 0.00 | 87 | 1014.7 |
| 20260503224503 | 16 | 90 | 3.2 | 8.0 | 0.00 | 0.28 | 0.00 | 87 | 1014.7 |
| 20260503223604 | 16 | 79 | 3.2 | 6.4 | 0.00 | 0.28 | 0.00 | 87 | 1014.7 |
| 20260503222703 | 16 | 133 | 4.8 | 6.4 | 0.00 | 0.28 | 0.00 | 87 | 1014.6 |
| 20260503221803 | 16 | 95 | 1.6 | 4.8 | 0.00 | 0.28 | 0.00 | 87 | 1014.6 |
| 20260503220903 | 16 | 123 | 1.6 | 3.2 | 0.00 | 0.28 | 0.00 | 87 | 1014.5 |
| 20260503220003 | 16 | 135 | 3.2 | 6.4 | 0.00 | 0.28 | 0.00 | 86 | 1014.3 |
| 20260503215403 | 16 | 111 | 3.2 | 6.4 | 0.00 | 0.28 | 0.28 | 86 | 1014.5 |
| 20260503214503 | 16 | 79 | 1.6 | 4.8 | 0.00 | 0.28 | 0.28 | 85 | 1014.3 |
| 20260503213604 | 16 | 349 | 0.0 | 3.2 | 0.00 | 0.28 | 0.28 | 85 | 1014.4 |
| 20260503212703 | 17 | 212 | 1.6 | 4.8 | 0.00 | 0.28 | 0.28 | 85 | 1014.6 |
| 20260503211803 | 17 | 92 | 1.6 | 3.2 | 0.00 | 0.28 | 0.28 | 85 | 1014.4 |
| 20260503210903 | 17 | 139 | 3.2 | 4.8 | 0.00 | 0.28 | 0.28 | 85 | 1014.3 |
| 20260503210003 | 17 | 126 | 3.2 | 4.8 | 0.00 | 0.28 | 0.28 | 84 | 1014.2 |
| 20260503205403 | 17 | 102 | 1.6 | 4.8 | 0.00 | 0.28 | 0.28 | 84 | 1014.3 |
| 20260503204503 | 17 | 54 | 3.2 | 4.8 | 0.00 | 0.28 | 0.28 | 84 | 1014.1 |
| 20260503203603 | 17 | 29 | 3.2 | 4.8 | 0.00 | 0.28 | 0.28 | 84 | 1014.2 |
| 20260503202703 | 17 | 36 | 1.6 | 6.4 | 0.00 | 0.28 | 0.28 | 85 | 1013.9 |
| 20260503201804 | 17 | 163 | 3.2 | 6.4 | 0.00 | 0.28 | 0.28 | 84 | 1014.2 |
| 20260503200903 | 17 | 149 | 3.2 | 6.4 | 0.00 | 0.28 | 0.28 | 84 | 1014.5 |
| 20260503200004 | 17 | 101 | 1.6 | 3.2 | 0.00 | 0.28 | 0.28 | 83 | 1014.3 |
| 20260503195403 | 17 | 74 | 1.6 | 4.8 | 0.00 | 0.28 | 0.28 | 83 | 1013.9 |
| 20260503194504 | 17 | 48 | 3.2 | 6.4 | 0.00 | 0.28 | 0.28 | 83 | 1013.8 |
| 20260503193603 | 18 | 78 | 3.2 | 6.4 | 0.00 | 0.28 | 0.28 | 82 | 1014.1 |
| 20260503192704 | 18 | 77 | 1.6 | 3.2 | 0.00 | 0.28 | 0.28 | 81 | 1014.1 |
| 20260503191803 | 18 | 72 | 3.2 | 4.8 | 0.00 | 0.28 | 0.28 | 81 | 1014.1 |
| 20260503190903 | 18 | 44 | 4.8 | 6.4 | 0.00 | 0.28 | 0.28 | 80 | 1014.1 |
| 20260503190004 | 18 | 53 | 3.2 | 4.8 | 0.00 | 0.28 | 0.28 | 79 | 1014.1 |
| 20260503185403 | 18 | 75 | 1.6 | 4.8 | 0.00 | 0.28 | 0.28 | 78 | 1014.4 |
| 20260503184503 | 18 | 101 | 1.6 | 3.2 | 0.00 | 0.28 | 0.28 | 77 | 1014.1 |
| 20260503183603 | 18 | 85 | 1.6 | 3.2 | 0.00 | 0.28 | 0.28 | 77 | 1014.0 |
| 20260503182704 | 18 | 127 | 1.6 | 4.8 | 0.00 | 0.28 | 0.28 | 77 | 1014.2 |
| 20260503181803 | 18 | 149 | 4.8 | 6.4 | 0.00 | 0.28 | 0.28 | 77 | 1014.3 |
| 20260503180903 | 18 | 149 | 3.2 | 6.4 | 0.00 | 0.28 | 0.28 | 76 | 1014.1 |
| 20260503180004 | 18 | 134 | 4.8 | 6.4 | 0.00 | 0.28 | 0.28 | 75 | 1014.1 |
| 20260503175403 | 19 | 134 | 3.2 | 6.4 | 0.00 | 0.28 | 0.28 | 75 | 1014.1 |
| 20260503174503 | 19 | 114 | 3.2 | 6.4 | 0.00 | 0.28 | 0.28 | 75 | 1014.0 |
| 20260503173603 | 19 | 116 | 4.8 | 8.0 | 0.00 | 0.28 | 0.28 | 74 | 1013.9 |
| 20260503172703 | 19 | 115 | 4.8 | 8.0 | 0.00 | 0.28 | 0.28 | 74 | 1013.9 |
| 20260503171803 | 19 | 91 | 4.8 | 8.0 | 0.00 | 0.28 | 0.28 | 74 | 1013.8 |
| 20260503170903 | 19 | 78 | 6.4 | 11.3 | 0.00 | 0.28 | 0.28 | 73 | 1013.8 |